User: anonymous   Login
Location: Unspecified
(0.0000°N, 0.0000°E)
Time: 10:00:33
(UTC+00:00)
Language:

Vela 1A - Orbit

View from above orbital plane
View from above orbital plane
View from above satellite
View from above satellite

Ground track
Ground track

The orbit data is extracted from the following two-line orbital elements,

1 00692U 63039C   15121.20864393 -.00000704  00000-0  00000+0 0  9994
2 00692 035.0640 003.9385 5629536 156.1177 001.4194 00.21987277 41590
Epoch (UTC): 01 May 2015 05:00:26
Eccentricity: 0.5629536
inclination: 35.0640°
perigee height: 44299 km
apogee height: 174851 km
right ascension of ascending node: 3.9385°
argument of perigee: 156.1177°
revolutions per day: 0.21987277
mean anomaly at epoch: 1.4194°
orbit number at epoch: 4159

The dashed part of the orbit path shows where the satellite is in the earth's shadow,  

DLR